Location: Unspecified
(47.6577°N, 23.5639°E)
Time: 02:31:07
(UTC+03:00)

ISS - Pass Details

Date: 12 February 2017
Orbit: 401 x 408 km, 51.6° (Epoch: 20 October)

Event Time Altitude Azimuth Distance (km) Brightness Sun altitude
Rises 18:19:32 0° 293° (WNW) 2,365 1.1 -6.5°
Reaches altitude 10° 18:21:39 10° 295° (WNW) 1,495 -0.1 -6.9°
Maximum altitude 18:25:00 74° 22° (NNE) 434 -3.8 -7.4°
Drops below altitude 10° 18:28:18 10° 107° (ESE) 1,474 -1.5 -8.0°
Enters shadow 18:28:39 - 108° (ESE) 1,619 -1.3 -8.0°
